"Pseudo-MPEC" for P12ptKQ

Created 2026 Aug 27 21:35:06 UT using Find_Orb

Click here for an explanation of pseudo-MPECs

 
 Astrometry: 
     P12ptKQ*0C2026 08 27.41848322 35 43.355+40 53 27.84   ~8RD5 16.01iXNEOCPF51
     P12ptKQ 0C2026 08 27.43037622 35 36.761+40 48 25.88   ~8RD5 15.95iXNEOCPF51
     P12ptKQ*0C2026 08 27.43115222 35 36.336+40 48 06.32   ~8RD5 15.95iXNEOCPF51
     P12ptKQ 0C2026 08 27.43699122 35 33.101+40 45 37.84   ~8RJ5 15.74oVNEOCPT05
     P12ptKQ 0C2026 08 27.44246422 35 30.085+40 43 19.06   ~8RD5 15.90iXNEOCPF51
     P12ptKQ 0C2026 08 27.44323722 35 29.659+40 42 59.44   ~8RD5 15.90iXNEOCPF51
     P12ptKQ 0C2026 08 27.45440622 35 23.521+40 38 16.41   ~8RD5 15.89iXNEOCPF51
     P12ptKQ 0C2026 08 27.46910022 35 15.475+40 32 04.20   ~8RJ5 15.67oVNEOCPT05
     P12ptKQ 0C2026 08 27.47227122 35 13.769+40 30 43.88   ~8RJ5 15.73oVNEOCPT05
     P12ptKQ 0C2026 08 27.47838322 35 10.442+40 28 09.44   ~8RJ5 15.64oVNEOCPT05
     P12ptKQ 0C2026 08 27.56604222 34 24.265+39 51 20.22   ~8RGo 15.76GVNEOCPF51
     P12ptKQ 0C2026 08 27.56643022 34 24.049+39 51 10.79   ~8RGo       VNEOCPF51
     P12ptKQ KC2026 08 27.78489022 32 55.954+38 21 47.41   ~8RJK 16.3 GXNEOCPL18
     P12ptKQ KC2026 08 27.78523422 32 55.726+38 21 39.60   ~8RJK 16.4 GXNEOCPL18
     P12ptKQ KC2026 08 27.78557822 32 55.632+38 21 31.54   ~8RJK 16.2 GXNEOCPL18
     P12ptKQ KC2026 08 27.78592122 32 55.478+38 21 22.82   ~8RJK 16.1 GXNEOCPL18
     P12ptKQ KC2026 08 27.78626522 32 55.294+38 21 15.08   ~8RJK 15.6 GXNEOCPL18
     P12ptKQ KB2026 08 27.79727122 32 51.329+38 16 51.10   ~8RJZ 16.0 GXNEOCP595
     P12ptKQ KB2026 08 27.79859622 32 50.729+38 16 19.92   ~8RJZ 16.1 GXNEOCP595
     P12ptKQ KB2026 08 27.79992122 32 50.150+38 15 48.56   ~8RJZ 16.0 GXNEOCP595
     P12ptKQ 0B2026 08 27.81206622 32 44.171+38 10 56.26   ~8RJo 15.79GWNEOCPG34
     P12ptKQ 0B2026 08 27.81335122 32 43.597+38 10 26.18   ~8RJo 16.06GWNEOCPG34
     P12ptKQ 0B2026 08 27.81463722 32 43.020+38 09 56.11   ~8RJo 16.00GWNEOCPG34
     P12ptKQ 0B2026 08 27.81592122 32 42.418+38 09 25.79   ~8RJo 16.12GWNEOCPG34
     P12ptKQ 0B2026 08 27.81720622 32 41.882+38 08 55.64   ~8RJo 15.77GWNEOCPG34
     P12ptKQ KB2026 08 27.82061622 32 39.096+38 07 44.90   ~8RK5 15.5 GXNEOCPL99
     P12ptKQ KB2026 08 27.82142522 32 38.772+38 07 25.64   ~8RK5 16.2 GXNEOCPL99
     P12ptKQ KB2026 08 27.82223522 32 38.460+38 07 05.99   ~8RK5 15.8 GXNEOCPL99
     P12ptKQ KB2026 08 27.86368422 32 22.219+37 50 42.40   ~8RLZ 16.2 GXNEOCPZ43
     P12ptKQ KB2026 08 27.87173722 32 18.679+37 47 35.66   ~8RLZ 16.2 GXNEOCPZ43
     P12ptKQ KB2026 08 27.88002822 32 15.010+37 44 22.99   ~8RLZ 16.1 GXNEOCPZ43

Station data:
(595) Farra d'Isonzo  (N45.915731 E13.525780)  Italy.  Observers S. Aschi, E.
   Pettarin, G. Panterotto. Measurers S. Aschi, E. Pettarin. 0.40-m f/5.15
   reflector + CCD.
(F51) Pan-STARRS 1, Haleakala  (N20.707234 W156.255910)  US/Hawaii.
   Observers J. Herman, T. Lowe, P. Minguez, A. Schultz, I. Smith. Measurers
   K. Chambers, T. de Boer, J. Fairlamb, H. Gao, M. Huber, C.-C. Lin, E.
   Magnier, Y. Ramanjooloo, R. Wainscoat, R. Weryk. 1.8-m Ritchey-Chrétien +
   CCD.
(G34) Oberfrauendorf  (N50.860002 E13.701500)  Germany.  Observer T. Felber.
   0.35-m f/6.3 Schmidt-Cassegrain + CCD.
(L18) QOS Observatory, Zalistci  (N48.848292 E26.718280)  Ukraine.  Observers
   O. V. Kravchenko, Y. V. Tanasiychuk. Measurer A. M. Kozhukhov. 0.50-m
   f/3.8 reflector + CCD.
(L99) Novosilky  (N50.607686 E30.602810)  Ukraine.  Observer A. M. Kozhukhov.
   0.30-m f/1.0 astrograph + CMO.
(T05) ATLAS-HKO, Haleakala  (N20.707551 W156.257010)  US/Hawaii.  Observers
   L. Denneau, R. Siverd, J. Tonry, H. Weiland. Measurers L. Denneau, N.
   Erasmus, A. Fitzsimmons, J. Robinson, R. Siverd, J. Tonry, H. Weiland.
   0.5-m f/2.0 Schmidt + CCD.
(Z43) Landehen  (N48.434102 W2.537840)  France.  Observer C. Ratinaud. 0.25-m
   f/4.7 Reflector + CCD.

Orbital elements:  P12ptKQ
   Perihelion 2026 Jul 6.054988 +/- 0.0685 TT =  1:19:10.9 (JD 2461227.554988)
Epoch 2026 Aug 28.0 TT = JDT 2461280.5   Earth MOID: 0.0572   Ve: 0.0788
M  21.142920995 +/- 0.18            Me: 0.0534   Ma: 0.0963      AutoNEOCP
n   0.399337354 +/- 0.00298         Peri.   18.740188 +/- 0.6
a   1.826316704 +/- 0.00908         Node   212.089357 +/- 0.7
e   0.72231639 +/- 0.00155          Incl.    3.729005 +/- 0.030
P   2.468/901.476d         H 19.75  G  0.15   U  8.8
q 0.507138211 +/- 0.000512    Q 3.145495198 +/- 0.0184    (J2000 ecliptic)
From 31 observations 2026 Aug. 27 (11.1 hr); mean residual 0".24
Residuals in arcseconds: 
260827 F51  .04-  .04-    260827 F51  .11-  .05+    260827 G34  .18+  .04+    
260827 F51  .01-  .04+    260827 L18  .24+  .06+    260827 G34  .11-  .11-    
260827 F51  .04+  .18+    260827 L18  .59-  .38+    260827 G34  .39+  .08-    
260827 T05  .04-  .11-    260827 L18  .15+  .44+    260827 L99  .93-  .42+    
260827 F51  .01+  .05-    260827 L18  .18+  .18-    260827 L99  .39-  .19+    
260827 F51  .01+  .06-    260827 L18  .13-  .21+    260827 L99  .30+  .41-    
260827 F51  .03+  .06+    260827 595  .03+  .04+    260827 Z43  .26-  .50-    
260827 T05  .14-  .00     260827 595  .01+  .03+    260827 Z43  .17+  .11+    
260827 T05  .08+  .06-    260827 595  .23+  .16-    260827 Z43  .33+  .12+    
260827 T05  .02-  .13+    260827 G34  .11+  .22-    
260827 F51  .11+  .26-    260827 G34  .16+  .10-    

Ephemerides (geocentric):
Date (UTC) HH   RA             Dec           delta  r     elong  mag " sig PA
---- --------  ------------   ------------  ------ ------ -----  --- --------
2026 08 27 22  22 31 55.449   +37 30 40.21  .08572 1.0700 132.5 16.3 .120 124
2026 08 27 23  22 31 38.352   +37 14 34.76  .08606 1.0706 132.8 16.3 .131 121
2026 08 28 00  22 31 21.510   +36 58 36.72  .08641 1.0711 133.1 16.3 .141 119
2026 08 28 01  22 31 04.919   +36 42 46.04  .08675 1.0716 133.4 16.3 .152 116
2026 08 28 02  22 30 48.572   +36 27 02.69  .08710 1.0722 133.6 16.3 .162 113
2026 08 28 03  22 30 32.464   +36 11 26.63  .08745 1.0727 133.9 16.3 .172 110
2026 08 28 04  22 30 16.591   +35 55 57.80  .08781 1.0732 134.2 16.3 .183 106
2026 08 28 05  22 30 00.947   +35 40 36.17  .08816 1.0738 134.5 16.3 .194 103
2026 08 28 06  22 29 45.527   +35 25 21.69  .08852 1.0743 134.7 16.3 .205 100
2026 08 28 07  22 29 30.326   +35 10 14.32  .08888 1.0748 135.0 16.3 .217  96
2026 08 28 08  22 29 15.341   +34 55 14.00  .08924 1.0754 135.3 16.3 .230  93
2026 08 28 09  22 29 00.566   +34 40 20.69  .08960 1.0759 135.5 16.3 .243  90
2026 08 28 10  22 28 45.998   +34 25 34.35  .08996 1.0764 135.8 16.3 .258  87
2026 08 28 11  22 28 31.632   +34 10 54.93  .09033 1.0770 136.1 16.3 .273  84
2026 08 28 12  22 28 17.463   +33 56 22.38  .09070 1.0775 136.3 16.3 .290  81
2026 08 28 13  22 28 03.488   +33 41 56.65  .09107 1.0780 136.6 16.3 .307  78
2026 08 28 14  22 27 49.704   +33 27 37.69  .09144 1.0786 136.8 16.3 .325  75
2026 08 28 15  22 27 36.105   +33 13 25.46  .09181 1.0791 137.1 16.3 .345  73
2026 08 28 16  22 27 22.689   +32 59 19.90  .09218 1.0796 137.3 16.3 .365  70
2026 08 28 17  22 27 09.452   +32 45 20.97  .09256 1.0802 137.6 16.3 .387  68
2026 08 28 18  22 26 56.391   +32 31 28.62  .09294 1.0807 137.8 16.3 .409  66
2026 08 28 19  22 26 43.502   +32 17 42.80  .09332 1.0813 138.1 16.3 .433  64
2026 08 28 20  22 26 30.781   +32 04 03.46  .09370 1.0818 138.3 16.3 .457  62
2026 08 28 21  22 26 18.226   +31 50 30.55  .09408 1.0823 138.6 16.3 .483  60
2026 08 28 22  22 26 05.833   +31 37 04.01  .09446 1.0829 138.8 16.3 .509  58
2026 08 28 23  22 25 53.600   +31 23 43.81  .09485 1.0834 139.0 16.3 .537  57
2026 08 29 00  22 25 41.523   +31 10 29.89  .09523 1.0839 139.3 16.3 .565  55
2026 08 29 01  22 25 29.599   +30 57 22.19  .09562 1.0845 139.5 16.3 .594  54
2026 08 29 02  22 25 17.826   +30 44 20.68  .09601 1.0850 139.7 16.3 .624  52
2026 08 29 03  22 25 06.200   +30 31 25.30  .09640 1.0855 140.0 16.3 .655  51
2026 08 29 04  22 24 54.720   +30 18 36.00  .09679 1.0861 140.2 16.3 .687  50
2026 08 29 05  22 24 43.382   +30 05 52.72  .09719 1.0866 140.4 16.3 .719  49
2026 08 29 06  22 24 32.184   +29 53 15.44  .09758 1.0871 140.6 16.4 .752  48
2026 08 29 07  22 24 21.123   +29 40 44.08  .09798 1.0877 140.8 16.4 .786  47
2026 08 29 08  22 24 10.197   +29 28 18.60  .09838 1.0882 141.1 16.4 .820  46
2026 08 29 09  22 23 59.403   +29 15 58.96  .09878 1.0887 141.3 16.4 .856  45
2026 08 29 10  22 23 48.740   +29 03 45.10  .09918 1.0893 141.5 16.4 .892  44
2026 08 29 11  22 23 38.205   +28 51 36.98  .09958 1.0898 141.7 16.4 .928  43
2026 08 29 12  22 23 27.795   +28 39 34.54  .09998 1.0903 141.9 16.4 .965  42
2026 08 29 13  22 23 17.508   +28 27 37.74  .10039 1.0908 142.1 16.4 1.00  41
2026 08 29 14  22 23 07.343   +28 15 46.53  .10079 1.0914 142.3 16.4 1.04  41
2026 08 29 15  22 22 57.297   +28 04 00.86  .10120 1.0919 142.5 16.4 1.08  40
2026 08 29 16  22 22 47.369   +27 52 20.69  .10161 1.0924 142.8 16.4 1.12  39
2026 08 29 17  22 22 37.555   +27 40 45.95  .10202 1.0930 143.0 16.4 1.16  39
2026 08 29 18  22 22 27.855   +27 29 16.62  .10243 1.0935 143.2 16.4 1.20  38
2026 08 29 19  22 22 18.266   +27 17 52.63  .10284 1.0940 143.4 16.4 1.24  38
2026 08 29 20  22 22 08.787   +27 06 33.95  .10325 1.0946 143.6 16.4 1.28  37
2026 08 29 21  22 21 59.415   +26 55 20.52  .10367 1.0951 143.8 16.4 1.32  36